Tracking 28790 objects as of 19-Apr-2024
HD Live streaming from Space Station
objects crossing your sky now

SL-14 DEB

Track SL-14 DEB now!
10-day predictions


NORAD ID: 39975
Int'l Code: 1987-068DB
Perigee: 821.4 km
Apogee: 964.3 km
Inclination: 82.6 °
Period: 102.7 minutes
Semi major axis: 7263 km
RCS: 0.0083 m2 (small)
Launch date: August 18, 1987
Source: Commonwealth of Independent States (former USSR) (CIS)
Launch site: PLESETSK MISSILE AND SPACE COMPLEX (PKMTR)

Note: This is SATELLITE DEBRIS
Your satellite tracking list
Your tracking list is empty




NASA's NSSDC Master Catalog

Two Line Element Set (TLE):
1 39975U 87068DB  24108.26637290  .00002214  00000-0  13746-2 0  9994
2 39975  82.5953  84.2979 0098391 229.1572 130.1040 14.02337947531608
Source of the keplerian elements: AFSPC